Tracking 28790 objects as of 18-Apr-2024
HD Live streaming from Space Station
objects crossing your sky now

FENGYUN 1C DEB

Track FENGYUN 1C DEB now!
10-day predictions


NORAD ID: 31820
Int'l Code: 1999-025CHJ
Perigee: 523.1 km
Apogee: 831.2 km
Inclination: 98.9 °
Period: 98.1 minutes
Semi major axis: 7048 km
RCS: 0.0132 m2 (small)
Launch date: May 10, 1999
Source: People's Republic of China (PRC)
Launch site: Taiyaun Space Center, China (TSC)

Note: This is SATELLITE DEBRIS
Your satellite tracking list
Your tracking list is empty




NASA's NSSDC Master Catalog

Two Line Element Set (TLE):
1 31820U 99025CHJ 24107.52748633  .00028643  00000-0  35423-2 0  9993
2 31820  98.9147 204.3391 0218588 121.1009 241.1842 14.67207910893056
Source of the keplerian elements: AFSPC